Regional Weather Roundup
Issued by NWS

Home | Current Version | Previous Version | Graphics & Text | Print | Product List | Glossary On
Versions: 1 2 3 4 5 6 7 8 9 10 11 12 13 14 15 16 17 18 19 20 21 22 23 24 25 26 27 28 29 30 31 32 33 34 35 36 37 38 39 40 41 42 43 44 45 46 47 48 49 50
000
ASUS43 KLOT 242306
RWRIL

ILLINOIS REGIONAL WEATHER ROUNDUP
NATIONAL WEATHER SERVICE CHICAGO/ROMEOVILLE IL
600 PM CDT FRI OCT 24 2014

NOTE: "FAIR" INDICATES FEW OR NO CLOUDS BELOW 12,000 FEET WITH NO
SIGNIFICANT WEATHER AND/OR OBSTRUCTIONS TO VISIBILITY.

* THESE STATIONS ARE NOT UNDER NWS QUALITY CONTROL. THEY ALSO MAY NOT
  REPORT WEATHER SUCH AS PRECIPITATION OR FOG.

ILZ001-002-007-009-015-016-024-250000-
NORTHWEST ILLINOIS

CITY           SKY/WX    TMP DP  RH WIND       PRES   REMARKS
MOLINE         CLOUDY    67  53  61 S8        29.90F
STERLING*      MOCLDY    63  45  51 S6        29.93F
SAVANNA*       CLOUDY    64  48  55 S8        29.91S
$$

ILZ003-004-008-010-011-017-018-250000-
NORTH CENTRAL ILLINOIS

CITY           SKY/WX    TMP DP  RH WIND       PRES   REMARKS
ROCKFORD       MOCLDY    58  48  69 S9        29.95F
FREEPORT*      MOCLDY    60  47  62 S8        29.93F
ROCHELLE*      PTCLDY    61  47  59 S7        29.94F
DE KALB*       PTCLDY    56  44  64 S6        29.96S
PERU*          MOCLDY    62  44  51 S10       29.97S
$$

ILZ005-006-012>014-019>023-250000-
NORTHEAST ILLINOIS

CITY           SKY/WX    TMP DP  RH WIND       PRES   REMARKS
CHICAGO-OHARE  MOCLDY    63  45  51 S8        29.94F
CHICAGO-MIDWAY MOCLDY    65  46  50 SW6       29.95F
AURORA         PTCLDY    62  45  53 S5        29.96S
LANSING*       CLEAR     60  48  63 CALM      29.97S
JOLIET*        PTCLDY    59  46  62 CALM      29.96S
WAUKEGAN       PTCLDY    53  49  86 CALM      29.94F FOG
DUPAGE AIRPORT PTCLDY    60  47  61 S3        29.95S
KANKAKEE*      PTCLDY    62  45  53 SW5       29.98S
WHEELING       PTCLDY    65  45  48 S6        29.96S
MORRIS*        PTCLDY    62  47  58 S3        29.95F
ROMEOVILLE*    PTCLDY    58  44  59 S5        29.96S
NORTHERLY ISL    N/A     65  46  50 S3          N/A
$$

LMZ740>746-250000-
SOUTHERN LAKE MICHIGAN

STATION/POSITION SKY/WX   TEMP    WIND        PRES    VSBY  WAVE
                          AIR SEA DIR/SP/G                  HT/PER
                          (F)     (DEG/KT/KT) (MB)    (MI)  (FT/S)
SOUTHERN BUOY              53 54  140/  6/  6 1014.8F         0
WAUKEGAN HARBOR            54        CALM       N/A
HARRISON CRIB              60     160/ 11/ 13   N/A
BURNHAM HARBOR             65     190/  4/  8   N/A
CALUMET HARBOR             65     200/  4/  5 1013.4F
MICHIGAN CITY              58      70/  1/  1   N/A
$$

ILZ025>027-034>036-040-047-049-050-058-095>099-250000-
WEST-CENTRAL ILLINOIS

CITY           SKY/WX    TMP DP  RH WIND       PRES   REMARKS
QUINCY         PTCLDY    67  55  65 S8        29.95F
GALESBURG*     CLOUDY    65  54  68 SE6       29.93F
MACOMB*        MOCLDY    66  53  62 S8        29.96F
JACKSONVILLE*  PTCLDY    68  50  51 S6        29.98S
PITTSFIELD*    PTCLDY    68  51  54 S5        29.99S
$$

ILZ028>032-037-038-041>044-048-051>054-059>061-250000-
CENTRAL ILLINOIS

CITY           SKY/WX    TMP DP  RH WIND       PRES   REMARKS
PONTIAC        PTCLDY    64  50  61 SW6       29.99R
BLOOMINGTON    CLEAR     60  52  75 SW7       30.01R
DECATUR        CLEAR     60  54  80 S7        30.01F
PEORIA         MOCLDY    63  51  65 SE5       29.97S
LACON*         MOCLDY    60  49  66 CALM      29.96F
LINCOLN*       PTCLDY    62  54  73 S3        29.97S
SPRINGFIELD    PTCLDY    65  51  60 S6        29.99S
TAYLORVILLE    PTCLDY    59  54  82 S6        30.01S
$$

ILZ033-039-045-046-055>057-062-063-250000-
EAST-CENTRAL ILLINOIS

CITY           SKY/WX    TMP DP  RH WIND       PRES   REMARKS
CHAMPAIGN      PTCLDY    60  54  80 SW8       30.01S
DANVILLE*      PTCLDY    62  51  68 SW5       29.98S
RANTOUL*       PTCLDY    63  54  71 SW7       30.00R
MATTOON        PTCLDY    62  53  72 W5        30.02S
PARIS*         PTCLDY    63  53  69 W5        30.02S
$$

ILZ079-100>102-250000-
SOUTHWEST ILLINOIS

CITY           SKY/WX    TMP DP  RH WIND       PRES   REMARKS
BELLEVILLE     PTCLDY    66  51  59 S2        30.00F
CAHOKIA*       PTCLDY    69  51  52 SE5       30.00F
SPARTA*        PTCLDY    68  49  50 CALM      30.04S
$$

ILZ064>066-069>071-074>076-080>082-084>086-088>090-092>094-250000-
SOUTH-CENTRAL ILLINOIS

CITY           SKY/WX    TMP DP  RH WIND       PRES   REMARKS
CARBONDALE     PTCLDY    65  51  60 S3        30.04F
CAIRO*         PTCLDY    69  53  57 CALM      30.05S HAZE
EFFINGHAM*     CLEAR     61  50  66 SW3       30.03S
MARION         PTCLDY    66  54  63 SW6       30.05F
MT. VERNON     CLEAR     61  50  67 CALM      30.05S
CENTRALIA*     PTCLDY    62  51  67 S3        30.03F
SALEM*         PTCLDY    63  57  81 CALM      30.03F
METROPOLIS*    PTCLDY    63  57  79 CALM      30.05S
$$

ILZ067-068-072-073-078-083-087-091-250000-
SOUTHEAST ILLINOIS

CITY           SKY/WX    TMP DP  RH WIND       PRES   REMARKS
LAWRENCEVILLE  PTCLDY    65  52  62 SW5       30.03S
FLORA*         PTCLDY    64  51  64 W3        30.04S
FAIRFIELD*     CLEAR     61  51  69 CALM      30.03S
HARRISBURG*    CLEAR     63  53  69 CALM      30.06S
ROBINSON*      PTCLDY    67  54  61 S5        30.03S
CARMI*         CLEAR     66  54  66 W3        30.03F
$$

ABBREVIATIONS USED IN REMARKS
   TC - TEMPERATURE IN CELSIUS
  WCI - WIND CHILL INDEX
   HX - HEAT INDEX
  VSB - VISIBILITY
$$




USA.gov is the U.S. government's official web portal to all federal, state and local government web resources and services.